Regional Weather Roundup
Issued by NWS Sioux Falls, SD

Home | Current Version | Previous Version | Graphics & Text | Print | Product List | Glossary Off
Versions: 1 2 3 4 5 6 7 8 9 10 11 12 13 14 15 16 17 18 19 20 21 22 23 24 25 26 27 28 29 30 31 32 33 34 35 36 37 38 39 40 41 42 43 44 45 46 47 48 49 50

000
ASUS43 KFSD 202302
RWRFSD

WEATHER ROUNDUP FOR SE SOUTH DAKOTA/SW MINNESOTA/NW IOWA
NATIONAL WEATHER SERVICE SIOUX FALLS SD
500 PM CST SAT JAN 20 2018

NOTE: "FAIR" INDICATES FEW OR NO CLOUDS BELOW 12,000 FEET WITH NO
SIGNIFICANT WEATHER AND OR OBSTRUCTIONS TO VISIBILITY.


SDZ038>040-050-052>070-210000-
SOUTHEAST SOUTH DAKOTA

CITY           SKY/WX    TMP DP  RH WIND       PRES   REMARKS
BROOKINGS      CLOUDY    41  29  62 N5        29.90R
CHAMBERLAIN    CLOUDY    41  37  84 NW7       29.91S
HURON          CLOUDY    41  33  73 SE3       29.90R
MADISON        FAIR      39  36  87 NE5       29.89S
MITCHELL       CLOUDY    39  33  79 N5        29.91R
SIOUX FALLS    CLOUDY    39  34  82 N5        29.89S
WINNER         FAIR      39  34  82 N7        29.91R
YANKTON        CLOUDY    39  32  76 N8        29.88S
$$

MNZ071-072-080-081-089-090-097-098-210000-
SOUTHWEST MINNESOTA

CITY           SKY/WX    TMP DP  RH WIND       PRES   REMARKS
FAIRMONT       MOCLDY    38  34  85 N6        29.90R
JACKSON        PTCLDY    37  32  81 N6        29.89R
LUVERNE        CLOUDY    36  30  80 CALM      29.89S
MARSHALL       PTCLDY    43  29  57 N3        29.91R
MONTEVIDEO     CLOUDY    39  28  65 NE3       29.90S
PIPESTONE      CLOUDY    37  32  81 CALM      29.88S
REDWOOD FALLS  MOCLDY    42  31  64 CALM      29.89R
TRACY          CLOUDY    42  32  66 CALM      29.90R
WINDOM         PTCLDY    37  21  52 N3        29.90R
$$

IAZ001>003-012>014-020>022-031-032-NEZ013-014-SDZ071-210000-
NORTHWEST IOWA

CITY           SKY/WX    TMP DP  RH WIND       PRES   REMARKS
CHEROKEE       CLEAR     47  32  55 NE3       29.86R
DENISON        CLEAR     46  34  61 E5        29.86R
ESTHERVILLE    PTCLDY    38  34  85 N8        29.88R
LE MARS        CLOUDY    45  34  65 N10       29.87R
ORANGE CITY    CLOUDY    45  36  70 N8        29.87S
SHELDON        PTCLDY    41  36  81 N9        29.87R
SIOUX CITY     CLEAR     49  34  56 N10       29.85R
SPENCER        CLEAR     41  31  67 N9        29.88R
STORM LAKE     CLEAR     45  32  61 NE7       29.85R
$$

ABBREVIATIONS USED IN REMARKS
   TC - TEMPERATURE IN CELSIUS
  WCI - WIND CHILL INDEX
   HX - HEAT INDEX
  VSB - VISIBILITY




USA.gov is the U.S. government's official web portal to all federal, state and local government web resources and services.